x

9440910 - Toke Point, Wa (tokw1) Weather Station

1:30 - Wed 1st Jul 2015 All times are PDT. -7 hours from GMT.

  • Wind
    3mph, 8mph gusts
  • Ar Temp 79°f
  • Sea Pressure 1016.1mb
  • 9440910 - Toke Point, Wa
  • 9440910 - Toke Point, Wa

More Historic Weather Station data

Upgrade to MSW Pro to gain access to the past 30 days of data for over 8000 Wavebouys and Weather Stations around the globe.

Join Pro

Comparision Forecast

View Surf forecast
   
Qua 07/01 1:30 3 8 mph 1016.1mb 79f
1:24 6 8 mph 1016.1mb 79f
1:18 3 10 mph 1016.2mb 79f
1:12 7 11 mph 1016.3mb 78f
1:06 7 10 mph 1016.3mb 77f
1:00 9 11 mph 1016.4mb 76f
12:54 8 11 mph 1016.5mb 76f
12:48 9 11 mph 1016.5mb 75f
12:42 9 11 mph 1016.5mb 74f
12:36 7 10 mph 1016.6mb 74f
12:30 2 9 mph 1016.6mb 74f
12:24 5 9 mph 1016.6mb 75f
12:18 6 8 mph 1016.6mb 75f
12:12 2 6 mph 1016.7mb 74f
12:06 6 8 mph 1016.7mb 73f
12:00 3 7 mph 1016.8mb 73f
11:54 2 7 mph 1016.9mb 73f
11:48 5 8 mph 1016.9mb 72f
11:42 3 7 mph 1017mb 72f
11:36 3 7 mph 1017mb 72f
11:30  -  3 mph 1017.1mb 72f
11:24 2 8 mph 1017.1mb 72f
11:18  -  6 mph 1017.1mb 72f
11:12  -  2 mph 1017mb 71f
11:06  -  5 mph 1017mb 71f
11:00  -  2 mph 1017mb 71f
10:54 1 5 mph 1017.1mb 70f
10:48 2 6 mph 1017.1mb 70f
10:42 2 5 mph 1017.1mb 70f
10:36 1 3 mph 1017.2mb 70f
10:30  -  5 mph 1017.2mb 69f
10:24 1 3 mph 1017.3mb 67f
10:18  -  3 mph 1017.2mb 67f
10:12 1 3 mph 1017.2mb 67f
10:06 1 5 mph 1017.3mb 66f
10:00 2 5 mph 1017.3mb 64f
9:54  -  2 mph 1017.3mb 64f
9:48  -  2 mph 1017.3mb 63f
9:42 1 2 mph 1017.4mb 62f
9:36 1 2 mph 1017.5mb 60f
9:30  -  1 mph 1017.6mb 60f
9:24  -  2 mph 1017.7mb 60f
9:18 1 2 mph 1017.8mb 59f
9:12  -  2 mph 1017.8mb 59f
9:06 1 3 mph 1017.8mb 58f
9:00 1 3 mph 1017.8mb 58f
8:54 1 3 mph 1017.8mb 58f
8:48 3
mph
1017.9mb 57f
8:42 2 5 mph 1018mb 57f
8:36 2 3 mph 1018mb 57f
8:30 1 3 mph 1018mb 57f
8:24 2 6 mph 1018mb 56f
8:18 5 6 mph 1018mb 56f
8:12 5 7 mph 1018mb 55f
8:06 5 7 mph 1018mb 55f
8:00 6 7 mph 1018.2mb 55f
7:54 6 7 mph 1018.1mb 55f
7:48 5 7 mph 1018.2mb 55f
7:42 6 7 mph 1018.3mb 55f
7:36 6 7 mph 1018.3mb 55f
7:30 6 8 mph 1018.3mb 55f
7:24 5 7 mph 1018.4mb 55f
7:18 5 7 mph 1018.3mb 55f
7:12 5 6 mph 1018.3mb 55f
7:06 5 7 mph 1018.3mb 55f
7:00 7 8 mph 1018.3mb 54f
6:54 6 7 mph 1018.4mb 54f
6:48 5 6 mph 1018.4mb 54f
6:42 6 8 mph 1018.4mb 54f
6:36 7
mph
1018.3mb 54f
6:30 6
mph
1018.3mb 54f
6:24 6
mph
1018.2mb 54f
6:18 6
mph
1018.2mb 54f
6:12 3 5 mph 1018.3mb 54f
6:06 3
mph
1018.3mb 54f
6:00 2 3 mph 1018.3mb 53f
5:54 3
mph
1018.3mb 53f
5:48 3 5 mph 1018.3mb 54f
5:42 3 5 mph 1018.3mb 54f
5:36 3
mph
1018.2mb 55f
5:30 2 5 mph 1018.2mb 55f
5:24 3
mph
1018.2mb 54f
5:18 2 3 mph 1018.3mb 54f
5:12 3
mph
1018.3mb 55f
5:06 2 5 mph 1018.3mb 55f
5:00 3 5 mph 1018.2mb 55f
4:54 3
mph
1018.2mb 55f
4:48 2 3 mph 1018.3mb 55f
4:42 1 2 mph 1018.4mb 56f
4:36 1
mph
1018.4mb 56f
4:30  -  1 mph 1018.4mb 56f
4:24 1 2 mph 1018.3mb 56f
4:18  -  1 mph 1018.3mb 56f
4:12 1 3 mph 1018.4mb 56f
4:06 3 7 mph 1018.3mb 56f
4:00 7 8 mph 1018.2mb 56f
3:54 5 6 mph 1018.4mb 56f
3:48 5 6 mph 1018.5mb 56f
3:42 3 5 mph 1018.6mb 56f
3:36 3 5 mph 1018.6mb 57f
3:30 3 6 mph 1018.6mb 57f
3:24 3 7 mph 1018.7mb 57f
3:18 2 5 mph 1018.7mb 57f
3:12 2 5 mph 1018.7mb 57f
3:06 2 6 mph 1018.7mb 57f
3:00 3 5 mph 1018.7mb 57f
2:54 2
mph
1018.7mb 56f
2:48 1 3 mph 1018.7mb 56f
2:42 1 3 mph 1018.8mb 56f
2:36 2 5 mph 1018.9mb 56f
2:30 3 5 mph 1018.9mb 57f
2:24 3 5 mph 1019mb 57f
2:18 2 3 mph 1019mb 57f
2:12 2 5 mph 1019.1mb 57f
2:06 5 6 mph 1019.1mb 57f
2:00 5 6 mph 1019.1mb 57f
1:54 3 5 mph 1019.2mb 57f
1:48 2 5 mph 1019.3mb 57f
1:42 3 6 mph 1019.2mb 57f
1:36 3 6 mph 1019.2mb 57f
1:30 2 3 mph 1019.2mb 57f
1:24 3 5 mph 1019.2mb 57f
1:18 3 5 mph 1019.3mb 57f
1:12 2 5 mph 1019.3mb 57f
1:06 3 6 mph 1019.4mb 57f
1:00 5 6 mph 1019.3mb 57f
12:54 5 8 mph 1019.2mb 57f
12:48 6 8 mph 1019.2mb 58f
12:42 5 7 mph 1019.3mb 57f
12:36 6 7 mph 1019.3mb 57f
12:30 6 7 mph 1019.4mb 58f
12:24 3 6 mph 1019.5mb 57f
12:18 6 7 mph 1019.5mb 58f
12:12 6
mph
1019.6mb 58f
12:06 3 5 mph 1019.6mb 57f
12:00 3 7 mph 1019.7mb 58f
Ter 06/30 11:54 2 6 mph 1019.7mb 58f
11:48  -  mph - 58f
11:42  -  mph - 57f
11:36  -  mph - 57f
11:30 3 5 mph 1019.7mb 58f
11:24 2 6 mph 1019.8mb 58f
11:18 6 8 mph 1019.8mb 58f
11:12 6 10 mph 1019.9mb 58f
11:06 6 8 mph 1019.9mb 58f
11:00 7 9 mph 1019.9mb 58f
10:54 8 9 mph 1019.9mb 58f
10:48 7 9 mph 1019.9mb 58f
10:42 5 7 mph 1020mb 58f
10:36 5 6 mph 1019.9mb 58f
10:30 6 9 mph 1019.9mb 58f
10:24 6 9 mph 1019.9mb 58f
10:18 5 9 mph 1019.9mb 58f
10:12 7 9 mph 1019.9mb 58f
10:06 3 6 mph 1019.9mb 58f
10:00 3 7 mph 1019.9mb 58f
9:54 5 6 mph 1019.8mb 58f
9:48 6 7 mph 1019.8mb 58f
9:42 6 7 mph 1019.8mb 58f
9:36 3 7 mph 1019.7mb 58f
9:30 6 9 mph 1019.7mb 58f
9:24 7 9 mph 1019.7mb 58f
9:18 7 9 mph 1019.5mb 59f
9:12 7 8 mph 1019.5mb 59f
9:06 3 9 mph 1019.5mb 59f
9:00 6 9 mph 1019.4mb 59f
8:54 7 9 mph 1019.4mb 59f
8:48 6 8 mph 1019.4mb 60f
8:42 6 11 mph 1019.4mb 60f
8:36 5 8 mph 1019.3mb 60f
8:30 5 10 mph 1019.4mb 60f
8:24 7 10 mph 1019.4mb 60f
8:18 9 13 mph 1019.3mb 61f
8:12 5 9 mph 1019.4mb 61f
8:06 9 13 mph 1019.4mb 61f
8:00 6 10 mph 1019.4mb 62f
7:54 8 10 mph 1019.4mb 62f
7:48 9 15 mph 1019.3mb 62f
7:42 6 11 mph 1019.4mb 62f
7:36 9 13 mph 1019.4mb 61f
7:30 9 15 mph 1019.4mb 61f
7:24 13 21 mph 1019.3mb 61f
7:18 14 20 mph 1019.3mb 62f
7:12 11 18 mph 1019.3mb 62f
7:06 8 11 mph 1019.4mb 62f
7:00 6 13 mph 1019.5mb 62f
6:54 9 17 mph 1019.5mb 61f
6:48 10 15 mph 1019.5mb 61f
6:42 14 17 mph 1019.5mb 61f
6:36 11 18 mph 1019.6mb 62f
6:30 15 22 mph 1019.6mb 61f
6:24 17 20 mph 1019.6mb 62f
6:18 16 21 mph 1019.6mb 62f
6:12 16 20 mph 1019.6mb 62f
6:06 15 21 mph 1019.7mb 63f
6:00 13 17 mph 1019.6mb 63f
5:54 13 16 mph 1019.6mb 63f
5:48 13 17 mph 1019.6mb 63f
5:42 14 17 mph 1019.6mb 63f
5:36 15 16 mph 1019.6mb 64f
5:30 10 15 mph 1019.6mb 64f
5:24 13 15 mph 1019.6mb 64f
5:18 13 15 mph 1019.7mb 64f
5:12 9 14 mph 1019.7mb 64f
5:06 8 10 mph 1019.8mb 65f
5:00 9 10 mph 1019.8mb 64f
4:54 8 10 mph 1019.9mb 64f
4:48 7 13 mph 1019.9mb 64f
4:42 9 14 mph 1020mb 63f
4:36 14 15 mph 1020.1mb 63f
4:00 13 16 mph 1020.3mb 63f
3:54 11 16 mph 1020.3mb 62f
3:48 13 16 mph 1020.4mb 63f
3:42 14 21 mph 1020.4mb 63f
3:36 17 20 mph 1020.4mb 63f
3:30 16 18 mph 1020.3mb 62f
3:24 16 17 mph 1020.3mb 63f
3:18 14 16 mph 1020.4mb 64f
3:12 11 14 mph 1020.5mb 65f
3:06 10 16 mph 1020.5mb 64f
3:00 14 16 mph 1020.6mb 64f
2:54 11 16 mph 1020.6mb 63f
2:48 15 18 mph 1020.6mb 63f
2:42 15 17 mph 1020.7mb 63f
2:36 15 18 mph 1020.7mb 63f
2:30 15 18 mph 1020.8mb 63f
2:24 17 21 mph 1020.8mb 63f
2:18 17 20 mph 1020.7mb 63f
2:12 17 21 mph 1020.7mb 63f
2:06 17 20 mph 1020.8mb 64f
2:00 16 20 mph 1020.7mb 64f
1:54 16 21 mph 1020.7mb 64f
1:48 16 20 mph 1020.7mb 64f
1:42 16 21 mph 1020.7mb 63f
1:36 15 18 mph 1020.7mb 64f
1:30 10 16 mph 1020.7mb 65f
1:24 13 16 mph 1020.8mb 65f
1:18 8 17 mph 1020.9mb 64f
1:12 9 13 mph 1020.9mb 64f
1:06 8 13 mph 1021mb 64f
1:00 7 13 mph 1021mb 64f
12:54 2 8 mph 1021.1mb 64f
12:48 2 7 mph 1021.2mb 63f
12:42 1 6 mph 1021.2mb 63f
12:36 2 6 mph 1021.2mb 64f
12:30 2 6 mph 1021.2mb 63f
12:24 6 13 mph 1021.2mb 62f
12:18 5 11 mph 1021.2mb 62f
12:12 8 11 mph 1021.3mb 61f
12:06 1 5 mph 1021.3mb 63f
12:00 2 10 mph 1021.3mb 61f
11:54 6 10 mph 1021.4mb 61f
11:48 8 10 mph 1021.5mb 60f
11:42 6 10 mph 1021.5mb 60f
11:36 5 9 mph 1021.5mb 60f
11:30 7 10 mph 1021.5mb 60f
11:24 8 11 mph 1021.5mb 59f
11:18 7 11 mph 1021.5mb 60f
11:12 9 13 mph 1021.5mb 59f
11:06 7 10 mph 1021.5mb 59f
11:00 7 8 mph 1021.6mb 60f
10:54 6 7 mph 1021.6mb 60f
10:48 7 8 mph 1021.7mb 59f
10:42 6 8 mph 1021.6mb 59f
10:36 6 8 mph 1021.6mb 59f
10:30 6 7 mph 1021.6mb 59f
10:24 6 9 mph 1021.6mb 59f
10:18 7 9 mph 1021.6mb 59f
10:12 7 8 mph 1021.6mb 59f
10:06 6 9 mph 1021.5mb 59f
10:00 7 8 mph 1021.5mb 59f
9:54 6 8 mph 1021.5mb 59f
9:48 6 8 mph 1021.4mb 58f
9:42 3 6 mph 1021.4mb 58f
9:36 5 7 mph 1021.4mb 58f
9:30 5 7 mph 1021.4mb 58f
9:24 5 6 mph 1021.3mb 58f
9:18 5 7 mph 1021.3mb 58f
9:12 7 8 mph 1021.3mb 58f
9:06 7 8 mph 1021.3mb 58f
9:00 7 8 mph 1021.3mb 58f
8:54 6 7 mph 1021.3mb 58f
8:48 5 6 mph 1021.2mb 58f
8:42 2 3 mph 1021.1mb 58f
8:36 2 3 mph 1021mb 58f
8:30 2 5 mph 1021.1mb 58f
8:24 3 5 mph 1021.1mb 58f
8:18 2 5 mph 1021.1mb 58f
8:12 3 5 mph 1021.1mb 58f
8:06 3
mph
1021.1mb 58f
8:00 3
mph
1021.1mb 58f
7:54 3 5 mph 1021.1mb 58f
7:48 3 6 mph 1021mb 57f
7:42 5 6 mph 1021mb 58f
7:36 5 6 mph 1020.9mb 57f
7:30 3 5 mph 1020.9mb 57f
7:24 2
mph
1021mb 58f
7:18 1 3 mph 1021mb 57f
7:12 2 3 mph 1021.1mb 57f
7:06 3 5 mph 1021mb 57f
7:00 2 3 mph 1021mb 57f
6:54 1 5 mph 1020.9mb 57f
6:48 3 5 mph 1020.9mb 57f
6:42 3 6 mph 1020.8mb 57f
6:36 6 7 mph 1020.8mb 57f
6:30 5 6 mph 1020.8mb 57f
6:24 5 6 mph 1020.9mb 57f
6:18 2 3 mph 1020.7mb 57f
6:12 3 5 mph 1020.7mb 57f
6:06 2 3 mph 1020.6mb 57f
6:00 1 2 mph 1020.5mb 57f
5:54 1 2 mph 1020.4mb 57f
5:48 1 2 mph 1020.3mb 57f
5:42 2
mph
1020.4mb 57f
5:36  -  2 mph 1020.4mb 57f
5:30 2 3 mph 1020.4mb 57f
5:24 2 3 mph 1020.4mb 57f
5:18  -  1 mph 1020.4mb 57f
5:12  -  2 mph 1020.2mb 57f
5:06 1 2 mph 1020.4mb 57f
5:00  -  2 mph 1020.3mb 57f
4:54 2 3 mph 1020.5mb 57f
4:48 3 5 mph 1020.5mb 57f
4:42 3
mph
1020.4mb 57f
4:36 2 5 mph 1020.2mb 57f
4:30 2 5 mph 1020.2mb 57f
4:24 3 5 mph 1020.2mb 57f
4:18 3
mph
1020.1mb 57f
4:12  -  2 mph 1020.1mb 57f
4:06 2 3 mph 1020.1mb 57f
4:00 2 3 mph 1020mb 57f
3:54 3 5 mph 1020.1mb 57f
3:48 5 6 mph 1020.2mb 57f
3:42 5 6 mph 1020.2mb 57f
3:36 6 7 mph 1020.2mb 57f
3:30 7 8 mph 1020.2mb 57f
3:24 8 9 mph 1020.3mb 57f
3:18 7 8 mph 1020.3mb 57f
3:12 6 7 mph 1020.2mb 57f
3:06 6
mph
1020.2mb 56f
3:00 3 5 mph 1020.2mb 56f
2:54 3 5 mph 1020.1mb 56f
2:48 3 6 mph 1020.1mb 57f
2:42 3 6 mph 1020mb 56f
2:36 3 5 mph 1020mb 57f
2:30 3 6 mph 1020mb 57f
2:24 3 5 mph 1020mb 57f
2:18 3 5 mph 1020mb 57f
2:12 1 3 mph 1020mb 57f
2:06 3 5 mph 1019.9mb 57f
2:00 3 6 mph 1020mb 57f
1:54 5 6 mph 1020mb 57f
1:48 3 6 mph 1020mb 57f
1:42 2 5 mph 1020mb 57f
1:36  -  1 mph 1019.9mb 58f
1:30  -  3 mph 1019.9mb 58f
1:24  -  2 mph 1019.9mb 58f
1:18  -  1 mph 1019.9mb 58f
1:12  -  3 mph 1019.8mb 58f
1:06  -  3 mph 1019.9mb 58f
1:00  -  2 mph 1019.9mb 58f
12:54 1 3 mph 1019.9mb 58f
12:48  -  3 mph 1019.9mb 58f
12:42 3 5 mph 1019.9mb 57f
12:36 2 5 mph 1019.9mb 58f
12:30 3 5 mph 1019.9mb 58f
12:24  -  3 mph 1019.9mb 58f
12:18 2 3 mph 1019.8mb 58f
12:12 2 5 mph 1019.8mb 58f
12:06 3 5 mph 1019.7mb 58f
12:00 2 5 mph 1019.7mb 58f
Seg 06/29 11:54 2 3 mph 1019.7mb 58f
11:48 2 3 mph - -
11:42 2 5 mph - -
11:36 2 3 mph - -
11:30  -  2 mph 1019.9mb 58f
11:24  -  2 mph 1019.9mb 58f
11:18  -  1 mph 1019.9mb 58f
11:12  -  1 mph 1019.8mb 58f
11:06  -  3 mph 1019.8mb 59f
11:00 2 3 mph 1019.8mb 58f
10:54  -  3 mph 1019.8mb 58f
10:48  -  3 mph 1019.8mb 58f
10:42 1 3 mph 1019.8mb 58f
10:36  -  2 mph 1019.8mb 58f
10:30  -  3 mph 1019.8mb 58f
10:24  -  6 mph 1019.7mb 58f
10:18 3 6 mph 1019.7mb 58f
10:12 2 5 mph 1019.7mb 58f
10:06 2 6 mph 1019.8mb 58f
10:00 5 7 mph 1019.6mb 58f
9:54 5 7 mph 1019.5mb 59f
9:48 6 7 mph 1019.5mb 59f
9:42 5 6 mph 1019.4mb 59f
9:36 5 7 mph 1019.3mb 59f
9:30 5 7 mph 1019.2mb 58f
9:24 6 7 mph 1019.2mb 58f
9:18 6 8 mph 1019.1mb 58f
9:12 7 9 mph 1019mb 58f
9:06 6 7 mph 1019mb 58f
9:00 5 7 mph 1019.1mb 58f
8:54 3 7 mph 1019.1mb 58f
8:48 3 7 mph 1019.1mb 58f
8:42 3 6 mph 1019.2mb 59f
8:36 5 7 mph 1019.2mb 59f
8:30 5 8 mph 1019.2mb 59f
8:24 2 6 mph 1019.2mb 59f
8:18  -  5 mph 1019.3mb 59f
8:12 1 7 mph 1019.2mb 59f
8:06 3 6 mph 1019.1mb 59f
8:00 3 6 mph 1019mb 59f
7:54 2 7 mph 1019mb 60f
7:48 2 6 mph 1018.9mb 60f
7:42 1 5 mph 1019mb 60f
7:36  -  7 mph 1019mb 59f
7:30 2 3 mph 1019mb 60f
7:24 1 2 mph 1018.9mb 60f
7:18  -  5 mph 1018.9mb 60f
7:12 1 5 mph 1019mb 60f
7:06 1 8 mph 1019mb 59f
7:00 5 8 mph 1019mb 59f
6:54 5 8 mph 1019mb 59f
6:48 5 7 mph 1019mb 59f
6:42 5 9 mph 1019.1mb 59f
6:36 3 10 mph 1019.1mb 59f
6:30 6 10 mph 1019mb 59f
6:24 6 10 mph 1019.1mb 59f
6:18 5 11 mph 1019.1mb 59f
6:12 5 10 mph 1019mb 59f
6:06 6 9 mph 1019mb 59f
6:00 2 11 mph 1019mb 60f
5:54 2 7 mph 1018.9mb 60f
5:48 2 7 mph 1018.9mb 60f
5:42 3 8 mph 1019mb 60f
5:36 1 5 mph 1019mb 61f
5:30 1 6 mph 1019mb 61f
5:24 2 5 mph 1019mb 61f
5:18  -  5 mph 1019.1mb 61f
5:12 1 7 mph 1019.1mb 61f
5:06 3 7 mph 1019.1mb 61f
5:00 2 7 mph 1019.2mb 61f
4:54 2 6 mph 1019.2mb 61f
4:48 2 6 mph 1019.2mb 61f
4:42 2 7 mph 1019.2mb 60f
4:36 3 7 mph 1019.2mb 60f
4:30 3 9 mph 1019.3mb 60f
4:24 3 9 mph 1019.3mb 60f
4:18 3 7 mph 1019.2mb 60f
4:12 3 8 mph 1019.3mb 61f
4:06 2 8 mph 1019.2mb 61f
4:00 3 10 mph 1019.2mb 61f
3:54 3 9 mph 1019.2mb 60f
3:48 2 5 mph 1019.2mb 62f
3:42 2 7 mph 1019.2mb 62f
3:36 2 8 mph 1019.1mb 61f
3:30 3 7 mph 1019.1mb 61f
3:24 3 13 mph 1019mb 61f
3:18 9 13 mph 1019.1mb 61f
3:12 8 11 mph 1019mb 61f
3:06 6 10 mph 1019mb 62f
3:00 6 9 mph 1019mb 62f
2:54 3 8 mph 1019mb 62f
2:48 2 6 mph 1018.9mb 63f
2:42 3 6 mph 1018.9mb 62f
2:36 2 6 mph 1019mb 62f
2:30 3 7 mph 1019mb 62f
2:24 2 6 mph 1019.1mb 63f
2:18 3 7 mph 1019.1mb 63f
2:12 3 7 mph 1019.3mb 62f
2:06 1 3 mph 1019.2mb 63f
2:00 1 3 mph 1019.2mb 63f
1:54 1 6 mph 1019.2mb 63f
1:48 1 7 mph 1019.2mb 63f
1:42 5 7 mph 1019.2mb 61f
1:36 2 9 mph 1019.2mb 61f
1:30 6 8 mph 1019.2mb 61f
1:24 6 9 mph 1019.1mb 61f
1:18 7 9 mph 1019.2mb 60f
1:12 7 8 mph 1019.2mb 60f
1:06 7 10 mph 1019.3mb 60f
1:00 7 9 mph 1019.2mb 61f
12:54 6 9 mph 1019.2mb 60f
12:48 7 9 mph 1019.1mb 60f
12:42 7 11 mph 1019.1mb 60f
12:36 8 10 mph 1019.2mb 60f
12:30 8 11 mph 1019.1mb 60f
12:24 8 10 mph 1019.1mb 60f
12:18 7 9 mph 1019mb 59f
12:12 9 10 mph 1019.1mb 59f
12:06 8 10 mph 1019.1mb 59f
12:00 8 10 mph 1019.1mb 59f
11:54 7 10 mph 1019.1mb 59f
11:48 7 10 mph 1019.2mb 59f
11:42 8 11 mph 1019.1mb 59f
11:36 7 10 mph 1019.1mb 59f
11:30 8 13 mph 1019.1mb 59f
11:24 9 13 mph 1019mb 59f
11:18 10 13 mph 1019mb 58f
11:12 10 14 mph 1018.9mb 58f
11:06 10 14 mph 1018.9mb 58f
11:00 10 15 mph 1018.9mb 58f
10:54 9 15 mph 1018.8mb 58f
10:48 10 14 mph 1018.8mb 58f
10:42 8 11 mph 1018.8mb 58f
10:36 5 13 mph 1018.7mb 58f
10:30 11 15 mph 1018.6mb 59f
10:24 8 9 mph 1018.7mb 59f
10:18 6 9 mph 1018.6mb 58f
10:12 3 8 mph 1018.6mb 58f
10:06 3 9 mph 1018.6mb 59f
10:00 6 10 mph 1018.5mb 58f
9:54 6 11 mph 1018.5mb 58f
9:48 6 14 mph 1018.5mb 58f
9:42 8 13 mph 1018.4mb 58f
9:36 7 14 mph 1018.4mb 58f
9:30 9 14 mph 1018.4mb 58f
9:24 3 11 mph 1018.3mb 58f
9:18 6 11 mph 1018.3mb 58f
9:12 6 11 mph 1018.3mb 58f
9:06 10 14 mph 1018.2mb 58f
9:00 3 9 mph 1018.1mb 58f
8:54 6 11 mph 1018mb 58f
8:48 6 9 mph 1017.9mb 58f
8:42 6 10 mph 1017.7mb 58f
8:36 6 11 mph 1017.7mb 58f
8:30 5 9 mph 1017.6mb 58f
8:24 3 9 mph 1017.7mb 58f
8:18 5 10 mph 1017.6mb 58f
8:12 6 10 mph 1017.5mb 57f
8:06 7 11 mph 1017.6mb 57f
8:00 8 11 mph 1017.5mb 57f
7:54 9 13 mph 1017.6mb 57f
7:48 9 13 mph 1017.5mb 57f
7:42 7 11 mph 1017.5mb 57f
7:36 7 10 mph 1017.4mb 57f
7:30 5 9 mph 1017.4mb 57f
7:24 6 8 mph 1017.3mb 57f
7:18 5 9 mph 1017.4mb 57f
7:12 7 10 mph 1017.3mb 57f
7:06 6 10 mph 1017.3mb 57f
7:00 6 9 mph 1017.2mb 56f
6:54 3 9 mph 1017.2mb 56f
6:48 3 7 mph 1017.2mb 56f
6:42 6 9 mph 1017.1mb 56f
6:36 6 10 mph 1017.1mb 56f
6:30 7 11 mph 1017.1mb 56f
6:24 6 9 mph 1017.1mb 56f
6:18 7 13 mph 1017mb 56f
6:12 6 10 mph 1017mb 56f
6:06 5 9 mph 1016.9mb 56f
6:00 5 10 mph 1017mb 56f
5:54 3 10 mph 1016.9mb 56f
5:48 6 10 mph 1016.9mb 56f
5:42 5 9 mph 1016.9mb 56f
5:36 6 9 mph 1016.9mb 56f
5:30 3 9 mph 1016.8mb 56f
5:24 3 8 mph 1016.7mb 56f
5:18 7 10 mph 1016.7mb 56f
5:12 6 10 mph 1016.7mb 56f
5:06 5 11 mph 1016.7mb 56f
5:00 2 10 mph 1016.6mb 56f
4:54 5 9 mph 1016.6mb 56f
4:48 5 10 mph 1016.5mb 56f
4:42 5 8 mph 1016.5mb 56f
4:36 3 10 mph 1016.4mb 56f
4:30 5 8 mph 1016.4mb 56f
4:24 5 8 mph 1016.4mb 56f
4:18 5 10 mph 1016.4mb 56f
4:12 6 10 mph 1016.4mb 56f
4:06 7 10 mph 1016.4mb 57f
4:00 7 11 mph 1016.5mb 57f
3:54 6 11 mph 1016.4mb 57f
3:48 3 11 mph 1016.4mb 57f
3:42 6 9 mph 1016.2mb 57f
3:36 5 8 mph 1016.1mb 57f
3:30 5 7 mph 1016.1mb 57f
3:24 5 8 mph 1016mb 57f
3:18 5 7 mph 1015.9mb 57f
3:12 6 7 mph 1015.9mb 57f
3:06 5 7 mph 1015.9mb 57f
3:00 3 7 mph 1015.9mb 57f
2:54 3 6 mph 1016mb 57f
2:48 1 7 mph 1016.1mb 57f
2:42 1 7 mph 1016.2mb 57f
2:36 3 6 mph 1016.1mb 57f
2:30 3 6 mph 1016.1mb 57f
2:24 5 7 mph 1016mb 57f
2:18 2 5 mph 1015.9mb 57f
2:12 3 7 mph 1016mb 57f
2:06 2 5 mph 1016.1mb 57f
2:00 3 5 mph 1016.2mb 57f
1:54 1 3 mph 1016.1mb 57f
1:48 1 3 mph 1016.1mb 57f
1:42  -  2 mph 1016.2mb 57f
1:36  -  2 mph 1016.2mb 57f
1:30 2
mph
1016.2mb 57f
1:24 2 3 mph 1016mb 57f
1:18 2
mph
1015.9mb 57f
1:12  -  1 mph 1015.7mb 57f
1:06  -  2 mph 1015.8mb 57f
1:00 1
mph
1015.7mb 57f
12:54  -  1 mph 1015.7mb 57f
12:48  -  2 mph 1015.9mb 57f
12:42  -  1 mph 1015.9mb 57f
12:36  -  2 mph 1015.9mb 57f
12:30  -  1 mph 1016mb 57f
12:24  -  1 mph 1016mb 57f
12:18  -  1 mph 1015.9mb 56f
12:12  -  1 mph 1016.1mb 56f
12:06  -  2 mph 1016.2mb 56f
12:00 1 2 mph 1016.2mb 56f
Dom 06/28 11:54 2 3 mph 1016mb 56f
11:48 1 2 mph - 56f
11:42  -  2 mph - 56f
11:36  -  mph - 56f
11:30  -  1 mph - 56f
11:24  -  mph - 56f
11:18  -  3 mph - -
11:12 2 3 mph - -
11:06  -  2 mph - -
11:00  -  2 mph 1015.8mb 55f
10:54 1 6 mph 1015.6mb 55f
10:48 1 3 mph 1015.6mb 55f
10:42 2 5 mph 1015.7mb 55f
10:36 3 8 mph 1015.7mb 56f
10:30 3 8 mph 1015.4mb 56f
10:24 2 9 mph 1015.3mb 57f
10:18 2 10 mph 1015.2mb 57f
10:12 3 10 mph 1014.9mb 58f
10:06 6 11 mph 1014.6mb 59f
10:00 9 13 mph 1014.4mb 61f
9:54 2 9 mph 1014.1mb 64f
9:48 2 7 mph 1014.3mb 63f
9:42 5 8 mph 1013.8mb 63f
9:36 5 13 mph 1014.5mb 61f
9:30 11 13 mph 1013.3mb 64f
9:24 9 10 mph 1013.5mb 64f
9:18 7
mph
1013.7mb 64f
9:12 6 7 mph 1013.9mb 63f
9:06 6 7 mph 1013.9mb 64f
9:00 2 3 mph 1014.2mb 64f
8:54 3 6 mph 1014.2mb 64f
8:48 7 14 mph 1014mb 63f
8:42 13 15 mph 1013.7mb 63f
8:36 14 15 mph 1013.6mb 63f
8:30 9 10 mph 1014mb 63f
8:24 8 9 mph 1014.2mb 63f
8:18 7 10 mph 1014.4mb 63f
8:12 9 13 mph 1014.4mb 63f
8:06 11 13 mph 1014.4mb 63f
8:00 9 10 mph 1014.5mb 62f
7:54 8 10 mph 1014.6mb 62f
7:48 8 9 mph 1014.5mb 62f
7:42 9 10 mph 1014.8mb 62f
7:36 8 10 mph 1014.7mb 62f
7:30 10 13 mph 1014.5mb 62f
7:24 9 10 mph 1014.5mb 62f
7:18 9 10 mph 1014.8mb 62f
7:12 9 10 mph 1014.9mb 62f
7:06 8
mph
1015mb 62f
7:00 7 9 mph 1015.2mb 62f
6:54 7 8 mph 1015.3mb 62f
6:48 5 7 mph 1015.6mb 61f
6:42 7 8 mph 1015.4mb 61f
6:36 7 8 mph 1015.6mb 61f
6:30 7 8 mph 1015.8mb 61f
6:24 6 7 mph 1016mb 61f
6:18 7 8 mph 1016.3mb 61f
6:12 3 5 mph 1016.4mb 61f
6:06 1 2 mph 1016.6mb 61f
6:00  -  2 mph 1016.8mb 61f
5:54  -  2 mph 1017mb 61f
5:48 1 5 mph 1017.1mb 61f
5:42 2 3 mph 1017mb 61f
5:36 1 3 mph 1016.9mb 61f
5:30 2 3 mph 1017mb 61f
5:24 3 5 mph 1017mb 60f
5:18 3 5 mph 1017mb 60f
5:12 2 5 mph 1017.4mb 60f
5:06 2 6 mph 1017.5mb 60f
5:00 3 6 mph 1017.5mb 60f
4:54 3 5 mph 1017.2mb 60f
4:48 2 6 mph 1017.2mb 60f
4:42 3 5 mph 1017.3mb 59f
4:36 2 3 mph 1017.3mb 59f
4:30 2 5 mph 1017.2mb 59f
4:24 3 6 mph 1017.3mb 59f
4:18 5 6 mph 1017.5mb 59f
4:12 2 6 mph 1017.5mb 59f
4:06 2 6 mph 1017.6mb 59f
4:00 2 10 mph 1017.7mb 59f
3:54 2 9 mph 1017.9mb 59f
3:48 6 8 mph 1017.7mb 59f
3:42 2 7 mph 1017.6mb 59f
3:36  -  9 mph 1017.5mb 59f
3:30 6 13 mph 1017.5mb 58f
3:24 9 14 mph 1017.5mb 58f
3:18 9 15 mph 1017.7mb 58f
3:12 6 16 mph 1017.7mb 58f
3:06 6 13 mph 1017.5mb 59f
3:00 3 7 mph 1017.4mb 59f
2:54 2 13 mph 1017.2mb 59f
2:48 7 13 mph 1017.4mb 59f
2:42 9 21 mph 1017.4mb 60f
2:36 8 13 mph 1017.4mb 60f
2:30 6 10 mph 1016.9mb 60f
2:24 5 8 mph 1016.6mb 60f
2:18 2 8 mph 1016.5mb 60f
2:12 7 10 mph 1016.8mb 60f
2:06 6 10 mph 1017mb 59f
2:00 7 13 mph 1017.1mb 60f
1:54 10 17 mph 1017.3mb 60f
1:48 11 20 mph 1017.3mb 60f
1:42 14 17 mph 1017.2mb 59f
1:36 10 13 mph 1017.1mb 59f
1:30 9 13 mph 1016.7mb 59f
1:24 10 14 mph 1016.8mb 58f
1:18 9 18 mph 1016.9mb 58f
1:12 14 20 mph 1016.5mb 58f
1:06 16 24 mph 1016.7mb 58f
1:00 21 28 mph 1016.1mb 60f
12:54 20 26 mph 1015.6mb 63f
12:48 9 11 mph 1015.8mb 64f
12:42 6 8 mph 1016mb 64f
12:36 3 5 mph 1016.1mb 63f
12:30 8 11 mph 1015.7mb 64f
12:24 9 15 mph 1015.2mb 64f
12:18 11 14 mph 1014.4mb 64f
12:12 9 13 mph 1014.3mb 65f
12:06 9 17 mph 1013.8mb 65f
12:00 11 17 mph 1013.7mb 64f
11:54 16 17 mph 1013.4mb 64f
11:48 11 21 mph 1013.7mb 64f
11:42 17 20 mph 1013.8mb 64f
11:36 15 18 mph 1014.3mb 64f
11:30 18
mph
1014.2mb 64f
11:24 11 14 mph 1014.8mb 64f
11:18 14 16 mph 1014.7mb 64f
11:12 6 9 mph 1015mb 63f
11:06 7 11 mph 1015.2mb 62f
11:00 13 16 mph 1015.1mb 61f
10:54 14 15 mph 1015.1mb 61f
10:48 11 14 mph 1015.2mb 61f
10:42 11 14 mph 1015.2mb 60f
10:36 11 14 mph 1015.4mb 60f
10:30 7 8 mph 1015.7mb 60f
10:24 6 8 mph 1015.8mb 59f
10:18 7 8 mph 1015.7mb 59f
10:12 6 7 mph 1016mb 59f
10:06 6 7 mph 1016.2mb 58f
10:00 6 7 mph 1016.4mb 58f
9:54 3 5 mph 1016.3mb 58f
9:48 5 6 mph 1016.5mb 58f
9:42 1 5 mph 1016.6mb 58f
9:36 5 7 mph 1017mb 58f
9:30 6 10 mph 1017.2mb 58f
9:24 9 13 mph 1017.4mb 57f
9:18 13 18 mph 1017.7mb 58f
9:12 14 21 mph 1017.9mb 58f
9:06 14 18 mph 1017.9mb 58f
9:00 18 22 mph 1018mb 58f
8:54 20 22 mph 1018.2mb 58f
8:48 15 24 mph 1018mb 58f
8:42 21 28 mph 1017.9mb 58f
8:36 23 28 mph 1017.6mb 57f
8:30 21 28 mph 1017.3mb 58f
8:24 18 23 mph 1017mb 58f
8:18 15 21 mph 1016.7mb 58f
8:12 13 16 mph 1016.3mb 58f
8:06 11 13 mph 1016mb 57f
8:00 8 11 mph 1015.7mb 57f
7:54 7 10 mph 1015.7mb 57f
7:48 6 9 mph 1015.6mb 57f
7:42 6 8 mph 1015.5mb 57f
7:36 6 8 mph 1015.5mb 57f
7:30 6 8 mph 1015.5mb 57f
7:24 5 7 mph 1015.5mb 57f
7:18 2 6 mph 1015.5mb 56f
7:12 1 3 mph 1015.5mb 56f
7:06 1 5 mph 1015.5mb 56f
7:00 2 10 mph 1015.4mb 56f
6:54 6 8 mph 1015.4mb 56f
6:48 2 5 mph 1015.5mb 55f
6:42 3 9 mph 1015.4mb 55f
6:36 5 7 mph 1015.2mb 55f
6:30 2 6 mph 1015.4mb 56f
6:24 3 11 mph 1015.1mb 56f
6:18 8 15 mph 1015mb 56f
6:12 13 14 mph 1015mb 56f
6:06 10 14 mph 1015.1mb 56f
6:00 7 11 mph 1015.1mb 56f
5:54 7 14 mph 1015mb 56f
5:48 8 14 mph 1014.7mb 56f
5:42 10 15 mph 1014.6mb 56f
5:36 10 14 mph 1014.7mb 56f
5:30 13 16 mph 1014.8mb 56f
5:24 8 13 mph 1014.8mb 56f
5:18 9 14 mph 1015mb 56f
5:12 9 14 mph 1014.9mb 56f
5:06 6 9 mph 1014.8mb 56f
5:00 5 16 mph 1014.8mb 56f
4:54 8 15 mph 1014.7mb 57f
4:48 10 15 mph 1014.8mb 57f
4:42 6 13 mph 1014.7mb 57f
4:36 10 15 mph 1014.7mb 57f
4:30 10 16 mph 1014.7mb 57f
4:24 9 13 mph 1014.5mb 58f
4:18 9 11 mph 1014.5mb 58f
4:12 7 13 mph 1014.4mb 58f
4:06 9 10 mph 1014.3mb 57f
4:00 8 9 mph 1014.2mb 57f
3:54 6 10 mph 1014.2mb 57f
3:48 8 11 mph 1014.5mb 57f
3:42 6 13 mph 1014.6mb 58f
3:36 8 14 mph 1014.8mb 58f
3:30 11 16 mph 1014.7mb 58f
3:24 11 15 mph 1014.8mb 58f
3:18 9 14 mph 1014.9mb 58f
3:12 9 15 mph 1014.9mb 58f
3:06 9 14 mph 1015mb 58f
3:00 9 14 mph - 58f
2:54 8 13 mph - 58f
2:48  -  mph 1014.9mb -
2:42  -  mph 1014.9mb -
2:36  -  mph 1014.9mb -
2:30  -  mph 1014.9mb -
2:24  -  mph 1014.9mb -
2:18  -  mph - 59f
2:12  -  mph - 59f
2:06  -  mph - 59f
2:00 7 9 mph 1014.5mb 59f
1:54 6 9 mph 1014.5mb 59f
1:48 3 9 mph 1014.5mb 59f
1:42 3 10 mph 1014.5mb 59f
1:36 8 13 mph 1014.5mb 60f
1:30 9 13 mph 1014.5mb 60f
1:24 10 13 mph 1014.4mb 60f
1:18 9 11 mph 1014.5mb 60f
1:12 8 10 mph 1014.4mb 60f
1:06 7 10 mph 1014.4mb 60f
1:00 7 10 mph 1014.5mb 60f
12:54 8 10 mph 1014.5mb 60f
12:48 8 10 mph 1014.5mb 60f
12:42 6 9 mph 1014.5mb 60f
12:36 6 9 mph 1014.5mb 60f
12:30 7 9 mph 1014.5mb 60f
12:24 7 10 mph 1014.4mb 60f
12:18 8 13 mph 1014.4mb 60f
12:12 10 13 mph 1014.4mb 59f
12:06 10 13 mph 1014.3mb 59f
12:00 10 14 mph 1014.3mb 59f
Sáb 06/27 11:54 11 15 mph 1014.2mb 59f
11:48 14 18 mph 1014.2mb 60f
11:42 15 20 mph 1014.1mb 60f
11:36 16 20 mph 1014.2mb 60f
11:30 15 17 mph 1014.2mb 61f
11:24 11 15 mph 1014mb 61f
11:18 11 15 mph - 61f
11:12 9 16 mph - 60f
11:06 14 17 mph - 60f
11:00 14 16 mph 1013.6mb 61f
10:54 14 15 mph 1013.5mb 61f
10:48 8 10 mph 1013.4mb 62f
10:42 7 9 mph 1013.3mb 64f
10:36 3 5 mph 1013.2mb 67f
10:30 3 5 mph 1013.1mb 67f
10:24  -  6 mph 1013mb 68f
10:18 6 7 mph 1013.1mb 68f
10:12 3 6 mph 1013.2mb 69f
10:06 3 5 mph 1013.1mb 70f
10:00 3 6 mph 1013.1mb 69f
9:54 3 5 mph 1013mb 68f
9:48 3
mph
1013mb 69f
9:42  -  3 mph 1012.9mb 69f
9:36 3
mph
1012.9mb 69f
9:30  -  2 mph 1012.9mb 69f